SCP
0 0 0 0 0 0 0 0 0 0 0 0 0 0 0 0 0 0 0 0 0 0 0 0 0 0 0 0 0 0 0 0 0 0 0 0 0 0 0 0 0 0 0
0 0 0 0 0 0 0 0 0 0 0 0 0 0 0 0 0 0 0 0 0 0 0 0 0 0 0 0 0 0 0 0 0 0 0 0 0 0 0 0 0 0 0
0 0 0 0 0 0 0 0 0 0 0 0 0 0 0 0 0 0 0 0 0 0 0 0 0 0 0 0 0 0 0 0 0 0 0 0 0 0 0 0 0 0 0
0 0 0 0 0 0 0 0 0 0 0 0 0 0 0 0 0 0 0 0 0 0 0 0 0 0 0 0 0 0 0 0 0 0 0 0 0 0 0 0 0 0 0
0 0 0 0 0 0 0 0 0 0 0 0 0 0 0 0 0 0 0 0 0 0 0 0 0 0 0 0 0 0 0 0 0 0 0 0 0 0 0 0 0 0 0
0 0 0 0 0 0 0 0 0 0 0 0 0 0 0 0 0 0 0 0 0 0 0 0 0 0 0 0 0 0 0 0 0 0 0 0 0 0 0 0 0 0 0
0 0 0 0 0 0 0 0 0 0 0 0 0 0 0 0 0 0 0 0 0 0 0 0 0 0 0 0 0 0 0 0 0 0 0 0 0 0 0 0 0 0 0
0 0 0 0 0 0 0 0 0 0 0 0 0 0 0 0 0 0 0 0 0 0 0 0 0 0 0 0 0 0 0 0 0 0 0 0 0 0 0 0 0 0 0
0 0 0 0 0 0 0 0 0 0 0 0 0 0 0 0 0 0 0 0 0 0 0 0 0 0 0 0 0 0 0 0 0 0 0 0 0 0 0 0 0 0 0
0 0 0 0 0 0 0 0 0 0 0 0 0 0 0 0 0 0 0 0 0 0 0 0 0 0 0 0 0 0 0 0 0 0 0 0 0 0 0 0 0 0 0
0 0 0 0 0 0 0 0 0 0 0 0 0 0 0 0 0 0 0 0 0 0 0 0 0 0 0 0 0 0 0 0 0 0 0 0 0 0 0 0 0 0 0
0 0 0 0 0 0 0 0 0 0 0 0 0 0 0 0 0 0 0 0 0 0 0 0 0 0 0 0 0 0 0 0 0 0 0 0 0 0 0 0 0 0 0
0 0 0 0 0 0 0 0 0 0 0 0 0 0 0 0 0 0 0 0 0 0 0 0 0 0 0 0 0 0 0 0 0 0 0 0 0 0 0 0 0 0 0
0 0 0 0 0 0 0 0 0 0 0 0 0 0 0 0 0 0 0 0 0 0 0 0 0 0 0 0 0 0 0 0 0 0 0 0 0 0 0 0 0 0 0
0 0 0 0 0 0 0 0 0 0 0 0 0 0 0 0 0 0 0 0 0 0 0 0 0 0 0 0 0 0 0 0 0 0 0 0 0 0 0 0 0 0 0
0 0 0 0 0 0 0 0 0 0 0 0 0 0 0 0 0 0 0 0 0 0 0 0 0 0 0 0 0 0 0 0 0 0 0 0 0 0 0 0 0 0 0
0 0 0 0 0 0 0 0 0 0 0 0 0 0 0 0 0 0 0 0 0 0 0 0 0 0 0 0 0 0 0 0 0 0 0 0 0 0 0 0 0 0 0
0 0 0 0 0 0 0 0 0 0 0 0 0 0 0 0 0 0 0 0 0 0 0 0 0 0 0 0 0 0 0 0 0 0 0 0 0 0 0 0 0 0 0
0 0 0 0 0 0 0 0 0 0 0 0 0 0 0 0 0 0 0 0 0 0 0 0 0 0 0 0 0 0 0 0 0 0 0 0 0 0 0 0 0 0 0
0 0 0 0 0 0 0 0 0 0 0 0 0 0 0 0 0 0 0 0 0 0 0 0 0 0 0 0 0 0 0 0 0 0 0 0 0 0 0 0 0 0 0
0 0 0 0 0 0 0 0 0 0 0 0 0 0 0 0 0 0 0 0 0 0 0 0 0 0 0 0 0 0 0 0 0 0 0 0 0 0 0 0 0 0 0
0 0 0 0 0 0 0 0 0 0 0 0 0 0 0 0 0 0 0 0 0 0 0 0 0 0 0 0 0 0 0 0 0 0 0 0 0 0 0 0 0 0 0
0 0 0 0 0 0 0 0 0 0 0 0 0 0 0 0 0 0 0 0 0 0 0 0 0 0 0 0 0 0 0 0 0 0 0 0 0 0 0 0 0 0 0
0 0 0 0 0 0 0 0 0 0 0 0 0 0 0 0 0 0 0 0 0 0 0 0 0 0 0 0 0 0 0 0 0 0 0 0 0 0 0 0 0 0 0
0 0 0 0 0 0 0 0 0 0 0 0 0 0 0 0 0 0 0 0 0 0 0 0 0 0 0 0 0 0 0 0 0 0 0 0 0 0 0 0 0 0 0
0 0 0 0 0 0 0 0 0 0 0 0 0 0 0 0 0 0 0 0 0 0 0 0 0 0 0 0 0 0 0 0 0 0 0 0 0 0 0 0 0 0 0
Wind_Speed
7 7 6 6 7 6 6 7 7 8 9 9 9 10 10 11 10 9 7 13 16 17 18 18 18 18 17 16 16 15 15 14 14 13 12 11 10 9 8 8 7 6 6
8 7 8 8 8 8 8 8 9 9 9 8 10 11 12 12 11 12 10 11 17 19 20 21 21 20 20 19 19 18 18 17 17 16 15 14 13 13 12 11 10 9 8
10 9 8 8 8 9 10 9 10 9 9 10 12 13 12 13 13 13 13 10 11 17 22 23 23 23 23 22 22 21 20 20 20 19 18 17 16 16 15 14 13 12 11
12 10 9 9 10 8 8 9 9 9 10 10 11 11 11 11 14 15 14 13 11 11 16 23 25 26 26 25 25 24 23 22 22 22 21 20 19 18 18 17 15 15 14
12 11 10 10 10 8 8 9 10 10 11 12 11 11 11 12 13 14 16 16 15 14 13 17 25 27 28 28 28 27 26 25 25 24 23 23 22 21 20 19 18 17 17
12 11 10 12 11 9 9 10 12 12 11 11 12 13 13 13 13 14 16 15 15 17 17 17 15 18 28 30 30 30 29 28 27 27 26 25 24 24 23 22 21 20 19
11 11 10 11 11 10 12 13 12 13 11 10 10 11 13 16 17 15 14 14 16 17 17 17 15 13 13 25 31 32 31 31 30 29 28 27 27 26 25 24 23 22 22
11 10 12 11 11 10 13 13 13 10 10 8 8 9 10 10 12 13 13 14 15 14 15 17 17 16 14 11 17 28 32 33 32 31 30 29 29 28 27 26 25 25 24
10 11 12 12 11 11 11 13 12 14 11 10 10 9 9 9 7 6 11 11 12 12 13 13 16 17 17 14 13 21 28 32 33 33 32 31 30 30 29 28 27 26 26
8 10 11 12 12 11 12 12 13 12 13 11 10 11 13 11 10 9 7 9 12 13 14 12 13 15 16 14 16 22 25 28 31 32 33 33 32 32 31 30 29 28 27
7 8 9 10 11 10 13 13 13 13 12 13 11 11 12 13 15 13 14 13 11 11 13 14 13 13 15 15 14 19 26 28 29 31 32 33 33 33 32 31 31 30 28
5 8 8 9 10 10 12 13 13 15 14 15 13 12 12 11 11 13 15 15 15 13 14 12 13 13 13 14 18 23 26 28 29 30 31 32 32 33 33 32 31 30 29
7 8 8 9 10 10 12 12 13 14 15 16 16 13 13 14 13 13 15 16 17 14 15 13 12 13 13 14 14 22 26 28 29 29 30 30 31 32 32 32 31 31 30
8 10 11 11 12 12 12 12 12 14 13 15 17 17 14 14 13 14 14 14 16 16 16 17 12 13 13 13 15 19 18 26 28 29 29 29 30 31 31 31 31 31 30
9 11 12 12 13 13 13 13 12 14 14 15 15 17 15 13 13 13 13 13 14 17 18 17 14 13 11 12 14 15 16 22 26 27 28 29 29 30 31 31 31 31 30
11 12 13 13 13 14 14 14 13 14 15 15 13 16 16 13 13 13 13 13 14 15 19 15 12 11 10 10 15 16 16 22 24 26 26 27 28 29 30 30 30 31 30
12 13 13 14 14 15 15 14 15 16 17 17 16 17 18 17 14 13 13 13 14 14 18 19 14 13 16 15 13 13 14 15 14 23 25 26 27 28 28 29 30 31 31
13 13 14 15 15 15 15 16 16 16 17 17 17 17 18 14 17 15 13 15 14 15 16 22 17 13 16 15 15 15 13 12 13 18 23 25 26 26 27 28 28 29 30
14 14 14 15 15 16 15 16 16 17 17 17 17 17 17 17 17 15 15 15 13 13 14 17 17 13 12 12 13 14 16 14 14 15 20 23 25 26 26 27 28 28 28
15 15 15 15 16 16 14 15 15 16 17 17 16 16 17 17 18 17 15 15 14 14 14 15 15 13 12 12 11 11 12 12 12 12 15 17 20 25 26 27 27 27 26
15 15 16 16 16 14 12 13 14 15 16 17 17 16 16 19 22 19 14 13 13 13 13 13 14 13 12 10 11 10 12 11 12 11 11 12 12 13 15 21 25 26 26
15 15 15 16 16 13 17 22 20 16 15 16 15 15 16 18 21 25 27 26 22 16 14 13 13 14 14 13 11 11 11 11 11 9 11 12 11 12 11 11 18 24 26
15 16 16 16 16 17 20 23 23 18 17 15 15 14 12 13 18 15 18 23 23 25 24 17 16 16 15 13 12 13 13 12 13 9 8 10 10 11 10 12 20 22 24
14 15 15 16 16 16 21 23 23 18 16 15 15 14 15 15 14 15 13 14 15 16 18 14 12 13 13 12 11 12 12 13 13 10 9 9 9 10 10 10 17 22 23
15 15 15 16 16 17 20 22 22 14 13 15 14 14 15 15 19 22 16 14 15 14 17 22 23 20 22 22 16 10 10 10 11 10 10 9 8 9 9 10 12 20 23
15 15 15 15 16 16 19 21 22 11 12 12 12 12 17 18 20 22 15 13 14 13 12 12 14 16 15 16 20 12 9 10 9 8 9 9 8 7 7 9 9 10 13
Wind_Direction
224 226 233 235 239 243 241 246 250 254 254 254 253 255 257 255 253 249 248 244 249 253 257 260 261 259 255 251 247 244 242 242 242 243 243 243 244 245 247 250 253 260 269
230 231 238 240 243 243 246 250 253 257 257 255 256 254 255 256 252 250 248 246 244 247 250 253 256 257 257 255 250 246 242 240 240 240 240 240 240 241 242 244 247 250 254
235 236 243 244 245 246 247 249 255 258 259 258 258 257 256 255 253 251 249 247 244 241 244 248 251 253 254 254 253 250 245 242 240 239 239 239 239 239 240 241 243 245 248
239 242 245 249 250 249 247 248 252 252 253 255 258 258 254 251 252 252 250 245 243 243 241 242 245 248 250 251 251 250 247 244 241 239 238 238 238 238 238 239 240 241 244
242 244 249 254 255 251 248 251 254 254 259 261 261 262 259 256 253 252 249 247 243 241 242 242 242 244 246 248 248 248 247 245 243 240 238 237 237 237 237 237 238 239 241
243 246 252 256 257 253 251 251 254 257 259 267 272 269 264 259 254 250 250 249 244 241 240 242 242 242 242 244 245 246 245 244 243 241 239 237 236 236 236 236 237 237 239
249 247 251 257 253 250 253 257 258 259 258 260 268 270 262 252 248 246 245 245 244 241 240 239 239 239 240 240 242 243 244 243 242 241 240 238 236 235 236 236 236 237 238
253 252 252 254 255 254 255 256 256 256 258 247 250 275 280 269 241 235 239 241 244 242 240 238 237 237 238 239 239 240 241 242 242 241 240 239 237 235 235 235 235 236 237
256 253 254 257 257 254 256 255 252 247 251 249 232 245 266 272 297 243 232 237 240 240 240 239 238 237 236 235 239 240 241 242 243 242 241 240 238 236 235 234 234 235 236
264 259 257 258 258 255 255 255 252 249 249 253 247 234 245 267 278 284 246 234 240 244 245 242 240 238 236 235 234 236 238 240 242 243 243 241 240 238 236 234 234 234 235
272 264 260 259 257 256 255 256 255 250 245 246 249 248 244 248 250 259 271 266 254 243 243 245 245 242 238 236 235 235 236 238 241 242 243 243 242 240 238 236 235 234 234
286 275 266 262 260 258 257 256 255 253 249 248 247 247 247 245 242 246 259 266 266 261 252 244 244 244 242 240 239 238 238 239 240 241 242 243 243 242 241 239 237 235 234
298 295 286 274 269 264 263 262 260 257 254 252 250 248 247 248 251 254 262 269 272 271 265 256 246 244 243 243 243 240 242 242 242 242 241 242 242 242 242 241 240 238 236
299 301 295 284 279 276 270 266 263 260 258 256 254 253 252 251 250 249 253 265 273 273 265 259 249 242 242 243 244 241 245 244 244 243 242 241 241 241 241 241 241 241 239
298 296 293 289 285 281 276 273 267 266 263 260 259 257 255 254 252 251 250 250 258 271 272 269 262 249 241 243 244 244 246 247 246 244 243 241 241 240 240 240 240 240 240
299 296 294 292 289 286 281 276 273 270 270 267 264 263 261 259 256 253 250 250 247 255 269 270 269 264 251 248 248 249 250 251 249 249 247 244 242 241 240 240 239 238 238
299 297 296 294 291 289 286 282 277 277 274 272 269 266 264 263 261 257 253 250 248 247 259 269 266 264 257 251 249 249 252 251 250 247 248 247 245 243 241 241 240 238 237
300 298 296 293 290 288 286 284 283 281 278 276 274 272 269 268 263 261 257 253 251 248 253 266 269 266 262 257 253 251 250 250 251 250 248 247 246 244 243 242 241 239 237
300 298 295 292 291 289 287 285 284 283 280 278 277 274 273 271 267 263 259 257 255 253 252 260 267 265 262 256 254 251 251 251 250 249 248 246 245 246 245 244 242 240 238
299 298 296 293 291 289 286 284 283 283 281 279 276 273 270 268 267 267 264 260 257 255 254 256 262 263 258 252 247 247 248 244 246 245 245 245 245 245 244 243 242 241 239
298 296 295 293 290 288 283 281 282 280 279 277 275 271 268 266 264 265 262 259 255 254 253 254 257 258 254 246 240 239 244 247 246 239 240 239 239 238 236 240 241 240 239
299 298 295 294 292 288 289 291 291 288 283 280 277 274 272 271 271 270 270 268 261 254 252 253 257 255 254 249 244 238 239 242 245 229 232 237 230 235 233 233 235 235 236
301 299 296 295 294 294 295 296 296 295 289 285 282 280 279 277 279 274 274 275 273 269 262 258 257 256 258 254 247 241 235 235 241 236 229 240 232 234 232 233 235 235 236
301 299 299 298 297 297 299 301 301 297 291 288 285 283 282 281 278 277 271 268 267 267 267 264 259 260 259 257 247 243 243 243 246 240 225 240 235 236 234 232 234 234 236
301 301 300 300 298 298 301 303 302 298 291 290 286 282 281 278 279 280 276 270 270 268 268 263 260 260 258 257 250 238 232 232 238 230 217 227 235 236 234 232 230 231 235
300 301 298 297 297 297 300 302 303 297 293 292 288 283 280 280 282 283 279 272 272 272 268 268 264 263 263 259 257 241 229 232 234 232 208 209 222 221 235 231 228 224 228